Iron Mountain, MI

12:04 PM CDT on July 28, 2017 (GMT -0500)
Ford

Weather History for KIMT - September, 2014

Change the Weather History Date:

Sunday, September 14, 2014

  Actual Average Record
Temperature  
Mean Temperature 52 °F -  
Max Temperature 64 °F 70 °F 93 °F (1939)
Min Temperature 41 °F 45 °F 28 °F (1946)
Degree Days  
Heating Degree Days 14    
Growing Degree Days 2 (Base 50)    
Moisture  
Dew Point 42 °F    
Average Humidity 72    
Maximum Humidity 93    
Minimum Humidity 50    
Precipitation  
Precipitation 0.00 in - - ()
Sea Level Pressure  
Sea Level Pressure 30.13 in    
Wind  
Wind Speed 7 mph (SSW)    
Max Wind Speed 20 mph    
Max Gust Speed 29 mph    
Visibility 10 miles    
Events      
Averages and records for this station are not official NWS values.
T = Trace of Precipitation, MM = Missing Value Source: NWS Daily Summary

Daily Weather History Graph

Daily Weather History Graph

Search for Another Location

Airport or City:

Trip Planner

Search our weather history database for the weather conditions in past years. The results will help you decide how hot, cold, wet, or windy it might be!

Date:

Astronomy

Sep. 14, 2014 Rise Set
Actual Time 6:29 AM CDT 7:05 PM CDT
Civil Twilight 5:59 AM CDT 7:35 PM CDT
Nautical Twilight 5:23 AM CDT 8:10 PM CDT
Astronomical Twilight 4:46 AM CDT 8:47 PM CDT
Moon 10:40 PM CDT (9/14) 12:53 PM CDT (9/14)
Length of Visible Light 13h 36m
Length of Day
12h 36m
Waning Gibbous, 64% of the Moon is Illuminated
Sep 14
Waning Gibbous
Sep 15
Last Quarter
Sep 24
New
Oct 1
First Quarter
Oct 8
Full

Hourly Weather History & Observations

Time (CDT) Temp. Windchill Dew Point Humidity Pressure Visibility Wind Dir Wind Speed Gust Speed Precip Events Conditions
12:54 AM 46.0 °F 43.1 °F 39.9 °F 79% 30.26 in 10.0 mi South 5.8 mph - N/A   Overcast
1:54 AM 45.0 °F 42.6 °F 39.9 °F 82% 30.25 in 10.0 mi South 4.6 mph - N/A   Overcast
2:54 AM 45.0 °F 42.6 °F 39.9 °F 82% 30.24 in 10.0 mi SSE 4.6 mph - N/A   Overcast
3:54 AM 43.0 °F 40.3 °F 39.9 °F 89% 30.23 in 10.0 mi SSE 4.6 mph - N/A   Clear
4:54 AM 42.1 °F 39.2 °F 39.0 °F 89% 30.21 in 10.0 mi SE 4.6 mph - N/A   Clear
5:54 AM 41.0 °F - 37.9 °F 89% 30.21 in 10.0 mi Calm Calm - N/A   Clear
6:54 AM 42.1 °F - 39.0 °F 89% 30.21 in 10.0 mi Calm Calm - N/A   Overcast
7:54 AM 45.0 °F 40.1 °F 39.9 °F 82% 30.19 in 10.0 mi South 9.2 mph - N/A   Overcast
8:54 AM 46.9 °F - 39.9 °F 77% 30.17 in 10.0 mi South 9.2 mph - N/A   Overcast
9:54 AM 53.1 °F - 42.1 °F 66% 30.15 in 10.0 mi South 13.8 mph 21.9 mph N/A   Mostly Cloudy
10:54 AM 57.0 °F - 41.0 °F 55% 30.12 in 10.0 mi SSW 16.1 mph 24.2 mph N/A   Partly Cloudy
11:54 AM 60.1 °F - 43.0 °F 53% 30.09 in 10.0 mi SSW 12.7 mph 27.6 mph N/A   Partly Cloudy
12:54 PM 62.1 °F - 43.0 °F 50% 30.06 in 10.0 mi SSW 19.6 mph 28.8 mph N/A   Mostly Cloudy
1:54 PM 61.0 °F - 43.0 °F 52% 30.05 in 10.0 mi SSW 15.0 mph 21.9 mph N/A   Overcast
2:54 PM 60.1 °F - 44.1 °F 55% 30.04 in 10.0 mi SW 9.2 mph - N/A   Overcast
3:54 PM 62.1 °F - 45.0 °F 53% 30.03 in 10.0 mi SW 11.5 mph 24.2 mph N/A   Mostly Cloudy
4:54 PM 62.1 °F - 45.0 °F 53% 30.04 in 10.0 mi West 8.1 mph - N/A   Scattered Clouds
5:54 PM 61.0 °F - 44.1 °F 54% 30.04 in 10.0 mi WSW 5.8 mph - N/A   Partly Cloudy
6:54 PM 57.0 °F - 44.1 °F 62% 30.05 in 10.0 mi WSW 4.6 mph - N/A   Mostly Cloudy
7:54 PM 54.0 °F - 45.0 °F 72% 30.06 in 10.0 mi WSW 4.6 mph - N/A   Partly Cloudy
8:54 PM 53.1 °F - 43.0 °F 69% 30.08 in 10.0 mi WNW 4.6 mph - N/A   Overcast
9:54 PM 48.9 °F - 43.0 °F 80% 30.08 in 10.0 mi Calm Calm - N/A   Clear
10:54 PM 45.0 °F - 43.0 °F 93% 30.08 in 10.0 mi Calm Calm - N/A   Clear
11:54 PM 42.1 °F - 39.9 °F 92% 30.10 in 10.0 mi Calm Calm - N/A   Clear